Weather History for Mount Pleasant, IA

Change the Weather History Date:

Friday, February 15, 2013

  Actual Average Record
Temperature  
Mean Temperature 30 °F -  
Max Temperature 37 °F 34 °F 69 °F (1954)
Min Temperature 24 °F 18 °F -8 °F (1986)
Degree Days  
Heating Degree Days 34    
Moisture  
Dew Point 10 °F    
Average Humidity 46    
Maximum Humidity 65    
Minimum Humidity 21    
Precipitation  
Precipitation 0.00 in - - ()
Sea Level Pressure  
Sea Level Pressure 30.24 in    
Wind  
Wind Speed 11 mph (NW)    
Max Wind Speed 18 mph    
Max Gust Speed 25 mph    
Visibility 10 miles    
Events      
Averages and records for this station are not official NWS values.
T = Trace of Precipitation, MM = Missing Value Source: NWS Daily Summary

Daily Weather History Graph

Daily Weather History Graph

Search for Another Location

Airport:

Trip Planner

Search our weather history database for the weather conditions in past years. The results will help you decide how hot, cold, wet, or windy it might be!

Date:

Astronomy

Feb. 15, 2013 Rise Set
Actual Time 6:59 AM CST 5:40 PM CST
Civil Twilight 6:31 AM CST 6:09 PM CST
Nautical Twilight 5:59 AM CST 6:41 PM CST
Astronomical Twilight 5:27 AM CST 7:13 PM CST
Moon 9:33 AM CST (2/15) 11:45 PM CST (2/15)
Length of Visible Light 11h 37m
Length of Day
10h 40m
Waxing Crescent, 30% of the Moon is Illuminated
Feb 15
Waxing Crescent
Feb 17
First Quarter
Feb 25
Full
Mar 4
Last Quarter
Mar 11
New

Hourly Weather History & Observations

Time (CST) Temp. Windchill Dew Point Humidity Pressure Visibility Wind Dir Wind Speed Gust Speed Precip Events Conditions
12:15 AM 33.3 °F 24.1 °F 22.3 °F 64% 30.10 in 10.0 mi NW 12.7 mph 21.9 mph N/A   Mostly Cloudy
12:35 AM 32.5 °F 23.2 °F 21.2 °F 63% 30.11 in 10.0 mi NW 12.7 mph 17.3 mph N/A   Scattered Clouds
12:55 AM 32.0 °F 23.0 °F 21.2 °F 64% 30.12 in 10.0 mi NW 11.5 mph 18.4 mph N/A   Scattered Clouds
1:15 AM 31.6 °F 22.1 °F 19.4 °F 61% 30.12 in 10.0 mi NW 12.7 mph 20.7 mph N/A   Scattered Clouds
1:35 AM 31.1 °F 20.9 °F 18.1 °F 59% 30.13 in 10.0 mi NW 13.8 mph 19.6 mph N/A   Scattered Clouds
1:55 AM 30.9 °F 19.4 °F 16.7 °F 56% 30.14 in 10.0 mi NNW 17.3 mph 25.3 mph N/A   Clear
2:15 AM 30.2 °F 18.9 °F 13.5 °F 50% 30.15 in 10.0 mi NW 16.1 mph 23.0 mph N/A   Clear
2:35 AM 29.3 °F 18.6 °F 12.4 °F 49% 30.16 in 10.0 mi NNW 13.8 mph 20.7 mph N/A   Clear
2:55 AM 28.8 °F 19.0 °F 13.1 °F 52% 30.17 in 10.0 mi NW 11.5 mph 16.1 mph N/A   Clear
3:15 AM 28.4 °F 17.5 °F 10.0 °F 46% 30.18 in 10.0 mi NW 13.8 mph 18.4 mph N/A   Clear
3:35 AM 28.0 °F 18.6 °F 9.3 °F 45% 30.18 in 10.0 mi NW 10.4 mph - N/A   Clear
3:55 AM 28.0 °F 17.5 °F 8.2 °F 43% 30.18 in 10.0 mi NNW 12.7 mph 17.3 mph N/A   Clear
4:15 AM 27.9 °F 17.3 °F 8.8 °F 45% 30.18 in 10.0 mi NW 12.7 mph - N/A   Clear
4:35 AM 27.5 °F 15.0 °F 8.6 °F 45% 30.19 in 10.0 mi NNW 17.3 mph 21.9 mph N/A   Clear
4:55 AM 27.1 °F 16.4 °F 9.1 °F 47% 30.20 in 10.0 mi NW 12.7 mph - N/A   Clear
5:15 AM 27.0 °F 15.2 °F 9.0 °F 47% 30.21 in 10.0 mi NW 15.0 mph - N/A   Clear
5:35 AM 26.6 °F 16.2 °F 9.3 °F 48% 30.21 in 10.0 mi NW 11.5 mph 16.1 mph N/A   Clear
5:55 AM 26.4 °F 16.0 °F 8.8 °F 47% 30.22 in 10.0 mi NW 11.5 mph 16.1 mph N/A   Clear
6:15 AM 26.1 °F 16.2 °F 9.5 °F 50% 30.23 in 10.0 mi NW 10.4 mph - N/A   Clear
6:35 AM 25.7 °F 18.0 °F 9.5 °F 50% 30.24 in 10.0 mi NW 6.9 mph - N/A   Clear
6:55 AM 25.5 °F 16.9 °F 10.0 °F 52% 30.24 in 10.0 mi WNW 8.1 mph - N/A   Clear
7:15 AM 25.5 °F 17.8 °F 12.2 °F 57% 30.25 in 10.0 mi WNW 6.9 mph - N/A   Clear
7:35 AM 26.1 °F 18.4 °F 13.3 °F 59% 30.25 in 10.0 mi NW 6.9 mph - N/A   Clear
7:55 AM 26.6 °F 16.8 °F 13.5 °F 58% 30.26 in 10.0 mi NW 10.4 mph - N/A   Clear
8:15 AM 27.5 °F 19.3 °F 13.6 °F 56% 30.27 in 10.0 mi NW 8.1 mph - N/A   Clear
8:35 AM 28.4 °F 19.7 °F 13.5 °F 54% 30.27 in 10.0 mi NW 9.2 mph - N/A   Clear
8:55 AM 29.5 °F 20.4 °F 13.1 °F 51% 30.27 in 10.0 mi NNW 10.4 mph - N/A   Clear
9:15 AM 29.8 °F 21.5 °F 12.6 °F 49% 30.27 in 10.0 mi WNW 9.2 mph - N/A   Clear
9:35 AM 30.6 °F 22.4 °F 10.6 °F 43% 30.28 in 10.0 mi NW 9.2 mph - N/A   Clear
9:55 AM 31.5 °F 24.2 °F 9.0 °F 39% 30.28 in 10.0 mi NW 8.1 mph - N/A   Clear
10:15 AM 32.0 °F 26.4 °F 9.5 °F 39% 30.28 in 10.0 mi WNW 5.8 mph - N/A   Clear
10:35 AM 32.4 °F 26.9 °F 7.9 °F 36% 30.28 in 10.0 mi NW 5.8 mph - N/A   Clear
10:55 AM 32.9 °F 25.9 °F 7.7 °F 35% 30.28 in 10.0 mi WNW 8.1 mph - N/A   Clear
11:15 AM 33.8 °F 25.8 °F 6.6 °F 32% 30.28 in 10.0 mi NW 10.4 mph - N/A   Clear
11:55 AM 35.1 °F 26.9 °F 7.2 °F 31% 30.26 in 10.0 mi West 11.5 mph - N/A   Clear
12:15 PM 35.8 °F 28.8 °F 8.2 °F 32% 30.26 in 10.0 mi West 9.2 mph - N/A   Clear
12:35 PM 36.0 °F 27.1 °F 6.8 °F 30% 30.25 in 10.0 mi West 13.8 mph 18.4 mph N/A   Clear
12:55 PM 36.9 °F 28.7 °F 6.8 °F 29% 30.24 in 10.0 mi WNW 12.7 mph - N/A   Clear
1:15 PM 36.7 °F 28.0 °F 5.2 °F 27% 30.24 in 10.0 mi West 13.8 mph - N/A   Clear
1:35 PM 36.5 °F 28.7 °F 4.1 °F 26% 30.24 in 10.0 mi NW 11.5 mph 20.7 mph N/A   Clear
1:55 PM 37.2 °F 27.3 °F 4.1 °F 25% 30.23 in 10.0 mi West 18.4 mph 21.9 mph N/A   Clear
2:15 PM 37.2 °F 27.9 °F 0.3 °F 21% 30.23 in 10.0 mi WNW 16.1 mph 21.9 mph N/A   Clear
2:35 PM 36.5 °F 27.4 °F 0.1 °F 22% 30.24 in 10.0 mi West 15.0 mph 21.9 mph N/A   Clear
2:55 PM 36.3 °F 27.5 °F 0.9 °F 22% 30.24 in 10.0 mi West 13.8 mph - N/A   Clear
3:15 PM 35.8 °F 26.1 °F 0.9 °F 23% 30.24 in 10.0 mi West 16.1 mph 21.9 mph N/A   Clear
3:35 PM 35.1 °F 25.5 °F 3.6 °F 27% 30.25 in 10.0 mi WNW 15.0 mph 21.9 mph N/A   Scattered Clouds
3:55 PM 34.7 °F 26.9 °F 5.4 °F 29% 30.25 in 10.0 mi WNW 10.4 mph 19.6 mph N/A   Scattered Clouds
4:15 PM 34.0 °F 24.2 °F 9.0 °F 35% 30.25 in 10.0 mi NW 15.0 mph 19.6 mph N/A   Scattered Clouds
4:35 PM 32.2 °F 23.2 °F 8.4 °F 37% 30.26 in 10.0 mi WNW 11.5 mph 21.9 mph N/A   Scattered Clouds
4:55 PM 31.5 °F 22.9 °F 9.7 °F 40% 30.26 in 10.0 mi NW 10.4 mph 17.3 mph N/A   Scattered Clouds
5:15 PM 31.1 °F 21.9 °F 9.9 °F 41% 30.26 in 10.0 mi WNW 11.5 mph - N/A   Scattered Clouds
5:35 PM 30.7 °F 22.0 °F 9.0 °F 40% 30.26 in 10.0 mi WNW 10.4 mph 16.1 mph N/A   Scattered Clouds
5:55 PM 30.2 °F 24.3 °F 10.2 °F 43% 30.26 in 10.0 mi NW 5.8 mph - N/A   Scattered Clouds
6:15 PM 30.2 °F 22.6 °F 10.9 °F 45% 30.27 in 10.0 mi NW 8.1 mph - N/A   Scattered Clouds
6:35 PM 30.0 °F 22.4 °F 10.4 °F 44% 30.27 in 10.0 mi NW 8.1 mph - N/A   Mostly Cloudy
6:55 PM 29.7 °F 22.8 °F 11.3 °F 46% 30.27 in 10.0 mi NW 6.9 mph - N/A   Mostly Cloudy
7:15 PM 29.1 °F 22.1 °F 11.3 °F 47% 30.27 in 10.0 mi NW 6.9 mph - N/A   Mostly Cloudy
7:35 PM 28.2 °F 21.0 °F 11.8 °F 50% 30.28 in 10.0 mi NW 6.9 mph - N/A   Scattered Clouds
7:55 PM 28.0 °F 22.8 °F 11.8 °F 51% 30.27 in 10.0 mi NW 4.6 mph - N/A   Clear
8:15 PM 27.5 °F 21.1 °F 11.8 °F 52% 30.27 in 10.0 mi NW 5.8 mph - N/A   Clear
8:35 PM 27.3 °F 19.1 °F 11.8 °F 52% 30.27 in 10.0 mi WNW 8.1 mph - N/A   Clear
8:55 PM 27.1 °F 19.7 °F 12.0 °F 53% 30.27 in 10.0 mi WNW 6.9 mph - N/A   Clear
9:15 PM 26.8 °F 18.5 °F 12.2 °F 54% 30.27 in 10.0 mi WNW 8.1 mph - N/A   Clear
9:35 PM 26.6 °F 18.2 °F 12.6 °F 55% 30.27 in 10.0 mi NW 8.1 mph - N/A   Clear
9:55 PM 26.4 °F 18.9 °F 12.7 °F 56% 30.27 in 10.0 mi NW 6.9 mph - N/A   Clear
10:15 PM 26.2 °F 18.6 °F 13.1 °F 58% 30.27 in 10.0 mi NW 6.9 mph - N/A   Clear
10:35 PM 25.7 °F 18.0 °F 13.1 °F 59% 30.26 in 10.0 mi NW 6.9 mph - N/A   Clear
10:55 PM 25.5 °F 19.9 °F 13.3 °F 60% 30.27 in 10.0 mi NW 4.6 mph - N/A   Clear
11:15 PM 25.2 °F 19.5 °F 13.8 °F 62% 30.27 in 10.0 mi NW 4.6 mph - N/A   Clear
11:35 PM 24.8 °F 16.1 °F 14.4 °F 65% 30.27 in 10.0 mi NW 8.1 mph - N/A   Clear
11:55 PM 24.8 °F 14.0 °F 12.6 °F 60% 30.26 in 10.0 mi NW 11.5 mph - N/A   Clear